Astoria, OR

2:15 AM PDT on April 28, 2017 (GMT -0700)
Astoria Regional

Weather History for KAST - September, 2014

Change the Weather History Date:

Friday, September 26, 2014

  Actual Average Record
Temperature  
Mean Temperature 59 °F 57 °F  
Max Temperature 66 °F 66 °F 85 °F (1967)
Min Temperature 52 °F 48 °F 38 °F (1908)
Degree Days  
Heating Degree Days 6 8  
Month to date heating degree days 65 164  
Since 1 July heating degree days 223 445  
Cooling Degree Days 0 0  
Month to date cooling degree days 20 0  
Year to date cooling degree days 45 7  
Growing Degree Days 10 (Base 50)    
Moisture  
Dew Point 57 °F    
Average Humidity 89    
Maximum Humidity 100    
Minimum Humidity 78    
Precipitation  
Precipitation 2.01 in 0.09 in 2.01 in (2014)
Month to date precipitation 4.56 1.75  
Year to date precipitation 46.87 39.85  
Sea Level Pressure  
Sea Level Pressure 29.98 in    
Wind  
Wind Speed 6 mph (South)    
Max Wind Speed 21 mph    
Max Gust Speed 31 mph    
Visibility 5 miles    
Events Fog , Rain    
T = Trace of Precipitation, MM = Missing Value Source: NWS Daily Summary

Daily Weather History Graph

Daily Weather History Graph

Search for Another Location

Airport or City:

Trip Planner

Search our weather history database for the weather conditions in past years. The results will help you decide how hot, cold, wet, or windy it might be!

Date:

Astronomy

Sep. 26, 2014 Rise Set
Actual Time 7:07 AM PDT 7:05 PM PDT
Civil Twilight 6:37 AM PDT 7:34 PM PDT
Nautical Twilight 6:02 AM PDT 8:09 PM PDT
Astronomical Twilight 5:27 AM PDT 8:45 PM PDT
Moon 9:38 AM PDT (9/26) 8:18 PM PDT (9/26)
Length of Visible Light 12h 57m
Length of Day
11h 57m
Waxing Crescent, 6% of the Moon is Illuminated
Sep 26
Waxing Crescent
Oct 1
First Quarter
Oct 8
Full
Oct 15
Last Quarter
Oct 23
New

Hourly Weather History & Observations

Time (PDT) Temp. Dew Point Humidity Pressure Visibility Wind Dir Wind Speed Gust Speed Precip Events Conditions
12:20 AM 57.0 °F 55.0 °F 93% 29.83 in 8.0 mi Calm Calm - N/A   Overcast
12:55 AM 60.1 °F 55.9 °F 86% 29.87 in 10.0 mi South 6.9 mph - 0.10 in Rain Light Rain
1:55 AM 59.0 °F 55.9 °F 90% 29.87 in 10.0 mi Calm Calm - 0.08 in   Overcast
2:42 AM 57.9 °F 57.0 °F 97% 29.88 in 1.8 mi Calm Calm - 0.07 in Rain Heavy Rain
2:55 AM 57.9 °F 55.9 °F 93% 29.88 in 2.0 mi SE 4.6 mph - 0.17 in Rain Heavy Rain
3:06 AM 57.2 °F 55.4 °F 94% 29.88 in 2.5 mi ESE 4.6 mph - N/A Rain Rain
3:10 AM 57.9 °F 55.9 °F 93% 29.88 in 3.0 mi ESE 4.6 mph - 0.08 in Rain Rain
3:19 AM 57.9 °F 55.9 °F 93% 29.88 in 3.0 mi SSE 5.8 mph - 0.11 in Rain Rain
3:55 AM 57.9 °F 57.0 °F 97% 29.89 in 4.0 mi SE 5.8 mph - 0.20 in Rain Light Rain
4:03 AM 59.0 °F 57.2 °F 94% 29.89 in 7.0 mi South 6.9 mph - N/A Rain Light Rain
4:08 AM 59.0 °F 57.0 °F 93% 29.88 in 1.8 mi SSW 8.1 mph - 0.03 in Rain Heavy Rain
4:13 AM 59.0 °F 57.0 °F 93% 29.88 in 1.0 mi Variable 6.9 mph - 0.19 in Rain Heavy Rain
4:17 AM 59.0 °F 57.0 °F 93% 29.88 in 1.5 mi East 3.5 mph - 0.24 in Rain Rain
4:19 AM 59.0 °F 57.0 °F 93% 29.89 in 2.0 mi Variable 4.6 mph - 0.25 in Rain Rain
4:30 AM 57.2 °F 57.2 °F 100% 29.89 in 3.0 mi ESE 5.8 mph - N/A Rain Light Rain
4:55 AM 61.0 °F 59.0 °F 93% 29.89 in 8.0 mi SSW 13.8 mph 19.6 mph 0.37 in Rain Light Rain
5:20 AM 61.0 °F 59.0 °F 93% 29.89 in 5.0 mi SSW 16.1 mph 24.2 mph 0.03 in Rain Light Rain
5:42 AM 61.0 °F 57.9 °F 90% 29.89 in 4.0 mi SSW 18.4 mph 27.6 mph 0.09 in Rain Rain
5:50 AM 60.8 °F 57.2 °F 88% 29.89 in 4.0 mi SSW 18.4 mph 27.6 mph 0.11 in Rain Rain
5:55 AM 61.0 °F 57.9 °F 90% 29.89 in 5.0 mi SSW 17.3 mph 28.8 mph 0.12 in Rain Light Rain
6:17 AM 61.0 °F 57.9 °F 90% 29.89 in 10.0 mi SSW 17.3 mph 27.6 mph 0.00 in Rain Light Rain
6:47 AM 61.0 °F 57.9 °F 90% 29.90 in 1.8 mi SSW 13.8 mph 26.5 mph 0.09 in Rain Heavy Rain
6:55 AM 61.0 °F 57.9 °F 90% 29.91 in 2.5 mi SSW 13.8 mph 25.3 mph 0.15 in Rain Light Rain
7:01 AM 61.0 °F 57.9 °F 90% 29.91 in 5.0 mi SSW 17.3 mph 25.3 mph 0.00 in Rain Light Rain
7:09 AM 61.0 °F 57.9 °F 90% 29.91 in 5.0 mi SSW 13.8 mph 31.1 mph 0.02 in Rain Light Rain
7:34 AM 61.0 °F 57.9 °F 90% 29.92 in 2.0 mi SSW 15.0 mph 23.0 mph 0.12 in Rain Heavy Rain
7:39 AM 61.0 °F 57.9 °F 90% 29.92 in 1.2 mi SSW 13.8 mph 23.0 mph 0.20 in Rain Heavy Rain
7:51 AM 60.8 °F 57.2 °F 88% 29.93 in 2.0 mi South 11.5 mph 23.0 mph 0.34 in Rain Light Rain
7:55 AM 61.0 °F 57.9 °F 90% 29.93 in 3.0 mi SSW 10.4 mph 23.0 mph 0.35 in Rain Light Rain
8:01 AM 61.0 °F 57.9 °F 90% 29.94 in 2.5 mi SW 10.4 mph 20.7 mph 0.03 in Rain Rain
8:07 AM 61.0 °F 57.9 °F 90% 29.93 in 1.8 mi SW 12.7 mph 23.0 mph 0.06 in Rain Heavy Rain
8:15 AM 61.0 °F 57.9 °F 90% 29.93 in 2.5 mi South 11.5 mph 20.7 mph 0.12 in Rain Light Rain
8:20 AM 61.0 °F 57.9 °F 90% 29.94 in 3.0 mi SW 15.0 mph 21.9 mph 0.16 in Rain Light Rain
8:22 AM 61.0 °F 57.9 °F 90% 29.94 in 2.5 mi SW 12.7 mph 21.9 mph 0.17 in Rain Light Rain
8:25 AM 61.0 °F 57.9 °F 90% 29.93 in 1.5 mi SSW 8.1 mph 21.9 mph 0.18 in Rain Heavy Rain
8:29 AM 61.0 °F 57.9 °F 90% 29.94 in 0.8 mi SSW 11.5 mph 20.7 mph 0.24 in Rain Heavy Rain
8:35 AM 61.0 °F 57.9 °F 90% 29.94 in 1.0 mi SW 10.4 mph 21.9 mph 0.31 in Rain Light Rain
8:39 AM 61.0 °F 57.9 °F 90% 29.95 in 3.0 mi WSW 15.0 mph 21.9 mph 0.31 in Rain Light Rain
8:47 AM 60.1 °F 57.9 °F 93% 29.95 in 7.0 mi SW 9.2 mph - 0.31 in Rain Light Rain
8:55 AM 60.1 °F 57.9 °F 93% 29.96 in 2.0 mi SW 10.4 mph - 0.32 in Rain Rain
9:01 AM 60.1 °F 57.9 °F 93% 29.96 in 1.8 mi SSW 12.7 mph 19.6 mph 0.03 in Rain Light Rain
9:04 AM 60.1 °F 57.9 °F 93% 29.96 in 3.0 mi SSW 10.4 mph 19.6 mph 0.03 in Rain Light Rain
9:12 AM 60.1 °F 57.9 °F 93% 29.96 in 3.0 mi SSW 8.1 mph - 0.06 in Rain Light Rain
9:21 AM 61.0 °F 57.9 °F 90% 29.96 in 8.0 mi SSW 11.5 mph - 0.06 in Rain Light Rain
9:55 AM 61.0 °F 57.9 °F 90% 29.97 in 7.0 mi South 6.9 mph - 0.08 in Rain Light Rain
10:34 AM 61.0 °F 59.0 °F 93% 29.98 in 3.0 mi SSW 8.1 mph - 0.01 in Rain Light Rain
10:55 AM 61.0 °F 57.0 °F 87% 29.99 in 10.0 mi SW 5.8 mph - 0.02 in   Overcast
11:10 AM 61.0 °F 57.9 °F 90% 30.00 in 4.0 mi SSW 8.1 mph - 0.01 in Rain Light Rain
11:25 AM 61.0 °F 57.9 °F 90% 30.01 in 10.0 mi South 9.2 mph - 0.01 in   Overcast
11:44 AM 61.0 °F 57.9 °F 90% 30.01 in 10.0 mi South 8.1 mph - 0.01 in   Overcast
11:51 AM 60.8 °F 57.2 °F 88% 30.01 in 10.0 mi South 8.1 mph - 0.01 in   Overcast
11:55 AM 61.0 °F 57.9 °F 90% 30.01 in 10.0 mi South 6.9 mph - 0.01 in   Overcast
12:38 PM 61.0 °F 57.9 °F 90% 30.02 in 10.0 mi South 6.9 mph - N/A   Overcast
12:55 PM 63.0 °F 57.9 °F 84% 30.03 in 10.0 mi South 6.9 mph - N/A   Overcast
1:14 PM 61.0 °F 57.9 °F 90% 30.03 in 1.8 mi South 6.9 mph - 0.02 in Rain Rain
1:26 PM 62.1 °F 59.0 °F 90% 30.03 in 3.0 mi South 6.9 mph - 0.04 in Rain Light Rain
1:45 PM 61.0 °F 57.9 °F 90% 30.03 in 2.5 mi South 8.1 mph - 0.06 in Rain Light Rain
1:55 PM 61.0 °F 57.9 °F 90% 30.03 in 3.0 mi SSE 6.9 mph - 0.06 in Rain Light Rain
2:55 PM 62.1 °F 59.0 °F 90% 30.03 in 10.0 mi South 6.9 mph - 0.08 in Rain Light Rain
3:06 PM 62.6 °F 59.0 °F 88% 30.04 in 10.0 mi South 5.8 mph - N/A   Overcast
3:55 PM 64.9 °F 60.1 °F 84% 30.04 in 10.0 mi WSW 5.8 mph - 0.00 in   Mostly Cloudy
4:24 PM 66.0 °F 59.0 °F 78% 30.04 in 10.0 mi WSW 9.2 mph - N/A   Mostly Cloudy
4:35 PM 66.0 °F 59.0 °F 78% 30.04 in 10.0 mi WSW 8.1 mph - N/A   Overcast
4:55 PM 64.9 °F 57.9 °F 78% 30.04 in 10.0 mi WSW 5.8 mph - N/A   Mostly Cloudy
5:55 PM 64.0 °F 57.0 °F 78% 30.05 in 10.0 mi West 6.9 mph - N/A   Clear
6:55 PM 60.1 °F 57.0 °F 90% 30.06 in 10.0 mi Calm Calm - N/A   Partly Cloudy
7:55 PM 57.9 °F 55.9 °F 93% 30.07 in 9.0 mi Calm Calm - N/A   Clear
8:32 PM 57.0 °F 55.0 °F 93% 30.07 in 10.0 mi Calm Calm - N/A   Scattered Clouds
8:55 PM 55.9 °F 54.0 °F 93% 30.07 in 10.0 mi Calm Calm - N/A   Partly Cloudy
9:55 PM 55.0 °F 53.1 °F 93% 30.08 in 8.0 mi East 4.6 mph - N/A   Clear
10:00 PM 54.0 °F 53.1 °F 97% 30.08 in 2.5 mi East 4.6 mph - N/A   Scattered Clouds
10:03 PM 55.0 °F 53.1 °F 93% 30.08 in 1.0 mi East 4.6 mph - N/A   Mist
10:11 PM 55.0 °F 53.1 °F 93% 30.08 in 0.8 mi SE 5.8 mph - N/A   Mist
10:15 PM 55.0 °F 54.0 °F 96% 30.09 in 1.0 mi SE 4.6 mph - N/A   Mist
10:25 PM 54.0 °F 54.0 °F 100% 30.09 in 0.5 mi Calm Calm - N/A Fog Fog
10:55 PM 54.0 °F 53.1 °F 97% 30.09 in 0.8 mi Calm Calm - N/A   Mist
11:01 PM 54.0 °F 53.1 °F 97% 30.09 in 1.5 mi Calm Calm - N/A   Overcast
11:05 PM 54.0 °F 53.1 °F 97% 30.09 in 3.0 mi Calm Calm - N/A   Overcast
11:24 PM 53.1 °F 53.1 °F 100% 30.09 in 1.8 mi Calm Calm - N/A   Overcast
11:30 PM 53.1 °F 52.0 °F 96% 30.09 in 0.8 mi Calm Calm - N/A   Overcast
11:48 PM 53.1 °F 51.1 °F 93% 30.09 in 1.0 mi Calm Calm - N/A   Overcast
11:55 PM 53.1 °F 51.1 °F 93% 30.09 in 1.2 mi ESE 4.6 mph - N/A   Overcast